Terug naar catalogus

STARLINK-32581

ActiefCommunicatieVLEO
NORAD 62184·PAYLOAD·🇺🇸 United States

Gelanceerd Nov 30, 2024 vanaf Vandenberg Space Force Base

Loading…

Volgende Passages (komende 24 uur)

TLE

VersSource: CelesTrak SupGP

Epoch: Sep 14, 2026, 22:49 UTC

1 62184C 24225X   26257.95118056 -.00024575  00000+0 -85503-3 0  2578
2 62184  70.0011  35.6729 0003625 273.3340 106.0114 15.29584558    18

Volg STARLINK-32581 in realtime met AllMySat

Download on the App Store